Location: Newark
(7.0858°N, 171.3717°E)
Time: 02:22:13
(UTC+00:00)

Transit 4A - Pass Details

Date: 28 November 2020
Orbit: 864 x 980 km, 66.8° (Epoch: 20 January)

Event Time Altitude Azimuth Distance (km) Brightness Sun altitude
Rises 19:32:51 0° 209° (SSW) 3,540 10.9 13.5°
Reaches altitude 10° 19:35:22 10° 214° (SSW) 2,615 10.2 14.0°
Maximum altitude 19:41:19 55° 290° (WNW) 1,116 8.2 15.4°
Drops below altitude 10° 19:47:26 10° 8° (N) 2,686 10.2 16.8°
Sets 19:50:05 0° 12° (NNE) 3,644 10.9 17.3°
